Time,TemperatureF,DewpointF,PressureIn,WindDirection,WindDirectionDegrees,WindSpeedMPH,WindSpeedGustMPH,Humidity,HourlyPrecipIn,Conditions,Clouds,dailyrainin,SoftwareType,DateUTC
2014-04-19 02:00:00,53.0,-99.9,-100.00,WNW,293,2.0,-999.0,-999,-99.99,,,-99.99,,2014-04-19 08:00:00,
2014-04-19 02:53:00,53.0,-99.9,-100.00,WNW,293,2.0,-999.0,-999,-99.99,,,-99.99,,2014-04-19 08:53:00,
2014-04-19 03:00:00,52.0,-99.9,-100.00,West,263,1.0,-999.0,-999,-99.99,,,-99.99,,2014-04-19 09:00:00,
2014-04-19 03:54:00,52.0,-99.9,-100.00,West,263,1.0,-999.0,-999,-99.99,,,-99.99,,2014-04-19 09:54:00,
2014-04-19 04:00:00,52.0,-99.9,-100.00,WSW,257,3.0,-999.0,-999,-99.99,,,-99.99,,2014-04-19 10:00:00,
2014-04-19 04:54:00,52.0,-99.9,-100.00,WSW,257,3.0,-999.0,-999,-99.99,,,-99.99,,2014-04-19 10:54:00,
2014-04-19 05:00:00,53.0,-99.9,-100.00,West,262,2.0,-999.0,-999,-99.99,,,-99.99,,2014-04-19 11:00:00,
2014-04-19 05:52:00,53.0,-99.9,-100.00,West,262,2.0,-999.0,-999,-99.99,,,-99.99,,2014-04-19 11:52:00,
2014-04-19 06:00:00,55.0,-99.9,-100.00,ENE,66,2.0,-999.0,-999,-99.99,,,-99.99,,2014-04-19 12:00:00,
2014-04-19 06:53:00,55.0,-99.9,-100.00,ENE,66,2.0,-999.0,-999,-99.99,,,-99.99,,2014-04-19 12:53:00,
2014-04-19 07:00:00,52.0,-99.9,-100.00,SE,124,1.0,-999.0,-999,-99.99,,,-99.99,,2014-04-19 13:00:00,
2014-04-19 07:52:00,52.0,-99.9,-100.00,SE,124,1.0,-999.0,-999,-99.99,,,-99.99,,2014-04-19 13:52:00,
2014-04-19 08:00:00,54.0,-99.9,-100.00,NE,39,2.0,-999.0,-999,-99.99,,,-99.99,,2014-04-19 14:00:00,
2014-04-19 08:52:00,54.0,-99.9,-100.00,NE,39,2.0,-999.0,-999,-99.99,,,-99.99,,2014-04-19 14:52:00,
2014-04-19 09:00:00,58.0,-99.9,-100.00,East,81,2.0,-999.0,-999,-99.99,,,-99.99,,2014-04-19 15:00:00,
2014-04-19 09:54:00,58.0,-99.9,-100.00,East,81,2.0,-999.0,-999,-99.99,,,-99.99,,2014-04-19 15:54:00,
2014-04-19 10:00:00,58.0,-99.9,-100.00,NE,48,5.0,-999.0,-999,-99.99,,,-99.99,,2014-04-19 16:00:00,
2014-04-19 10:53:00,58.0,-99.9,-100.00,NE,48,5.0,-999.0,-999,-99.99,,,-99.99,,2014-04-19 16:53:00,
2014-04-19 11:00:00,60.0,-99.9,-100.00,ENE,61,5.0,-999.0,-999,-99.99,,,-99.99,,2014-04-19 17:00:00,
2014-04-19 11:52:00,60.0,-99.9,-100.00,ENE,61,5.0,-999.0,-999,-99.99,,,-99.99,,2014-04-19 17:52:00,
2014-04-19 12:00:00,60.0,-99.9,-100.00,ENE,65,4.0,-999.0,-999,-99.99,,,-99.99,,2014-04-19 18:00:00,
2014-04-19 12:52:00,60.0,-99.9,-100.00,ENE,65,4.0,-999.0,-999,-99.99,,,-99.99,,2014-04-19 18:52:00,
2014-04-19 13:00:00,64.0,-99.9,-100.00,NE,34,6.0,-999.0,-999,-99.99,,,-99.99,,2014-04-19 19:00:00,
2014-04-19 13:53:00,64.0,-99.9,-100.00,NE,34,6.0,-999.0,-999,-99.99,,,-99.99,,2014-04-19 19:53:00,